User: anonymous   Login
Location: ??????????
(31.2156°N, 29.9553°E)
Time: 14:26:45
(UTC+00:00)
Language:

CZ-3 Stage 3 - Orbit

View from above orbital plane
View from above orbital plane
View from above satellite
View from above satellite

Ground track
Ground track

The orbit data is extracted from the following two-line orbital elements,

1 20474U 90011B   21126.73483664  .00000257  00000-0  67720-4 0  9991
2 20474  30.4582 320.9841 6690406 165.5634 231.9477  3.04263291 94229
Epoch (UTC): 06 May 2021 17:38:09
Eccentricity: 0.6690406
inclination: 30.4582°
perigee height: 280 km
apogee height: 27198 km
right ascension of ascending node: 320.9841°
argument of perigee: 165.5634°
revolutions per day: 3.04263291
mean anomaly at epoch: 231.9477°
orbit number at epoch: 9422

The dashed part of the orbit path shows where the satellite is in the earth's shadow,  

DLR